Regional Weather Roundup
Issued by NWS Raleigh/Durham, NC

Home | Current Version | Previous Version | Text Only | Print | Product List | Glossary On
Versions: 1 2 3 4 5 6 7 8 9 10 11 12 13 14 15 16 17 18 19 20 21 22 23 24 25 26 27 28 29 30 31 32 33 34 35 36 37 38 39 40 41 42 43 44 45 46 47 48 49 50
000
ASUS42 KRAH 170110
RWRRAH
NORTH CAROLINA WEATHER ROUNDUP
NATIONAL WEATHER SERVICE RALEIGH NC
800 PM EST TUE JAN 16 2018

NOTE: "FAIR" INDICATES FEW OR NO CLOUDS BELOW 12,000 FEET WITH NO
SIGNIFICANT WEATHER AND/OR OBSTRUCTIONS TO VISIBILITY.

NCZ001-053-055-056-065-067-170200-
WESTERN NORTH CAROLINA

CITY           SKY/WX    TMP DP  RH WIND       PRES   REMARKS
ASHEVILLE      CLOUDY    37  27  67 N12       30.25R WCI  29
JEFFERSON      MOCLDY    30  20  65 CALM      30.20S
MORGANTON      FAIR      32  26  78 CALM      30.30S
HICKORY        MOCLDY    39  24  55 CALM      30.27S
RUTHERFORDTON  FAIR      43  26  52 SW3       30.29S
MOUNT AIRY     FAIR      36  25  64 CALM      30.30F
BOONE          FAIR      32  21  63 W10       30.22S WCI  24
$$

NCZ021-022-025-041-071-084-088-170200-
CENTRAL NORTH CAROLINA

CITY           SKY/WX    TMP DP  RH WIND       PRES   REMARKS
CHARLOTTE      MOCLDY    43  26  51 S9        30.29F
GREENSBORO     CLOUDY    38  23  55 CALM      30.29F
WINSTON-SALEM  CLOUDY    37  23  56 CALM      30.30F
RALEIGH-DURHAM CLOUDY    35  22  58 SE3       30.33F
FORT BRAGG     FAIR      37  26  64 CALM      30.33F
FAYETTEVILLE   FAIR      38  25  59 SE5       30.34F WCI  34
BURLINGTON     FAIR      35  24  64 CALM      30.30F
LAURINBURG     FAIR      37  27  67 CALM      30.35F
$$

NCZ011-015-027-028-043-044-047-080-103-170200-
NORTHEASTERN NORTH CAROLINA

CITY           SKY/WX    TMP DP  RH WIND       PRES   REMARKS
ROCKY MT-WILSO FAIR      32  27  81 CALM      30.36R
GREENVILLE     FAIR      36  27  69 CALM      30.36S
WASHINGTON     FAIR      37  31  78 SE3       30.36F
ELIZABETH CITY FAIR      34  34 100 E3        30.36F
MANTEO         FOG       33  33 100 N3        30.37F VSB 1/4
CAPE HATTERAS  FAIR      37  37 100 N6        30.36S WCI  32
$$

NCZ078-087-090-091-093-098-101-170200-
SOUTHEASTERN NORTH CAROLINA

CITY           SKY/WX    TMP DP  RH WIND       PRES   REMARKS
LUMBERTON      FAIR      34  28  79 SE3       30.35F
GOLDSBORO      CLEAR     38  26  60 CALM      30.34S
KINSTON        FAIR      34  28  80 CALM      30.37R
KENANSVILLE    FAIR      32  27  80 CALM      30.36S
NEW BERN       FAIR      36  31  82 CALM      30.37S
CHERRY POINT   CLEAR     40  34  79 N3        30.37S
BEAUFORT       FAIR      38  35  89 CALM      30.36S
JACKSONVILLE   FAIR      39  32  76 CALM      30.36S
WILMINGTON     FAIR      39  32  76 CALM      30.37S
$$




USA.gov is the U.S. government's official web portal to all federal, state and local government web resources and services.